Location: AstroGeek's Observatory
(41.9520°N, 70.9880°W)
Time: 11:55:16
(UTC-05:00)

ISS - All Passes

Search period start: 14 February 2016 00:00
Search period end: 24 February 2016 00:00
Orbit: 398 x 407 km, 51.6° (Epoch: 14 February)

Date Brightness Start Highest point End Pass type
(mag) Time Alt. Az. Time Alt. Az. Time Alt. Az.
14 Feb - 13:33:16 10° SW 13:36:26 51° SE 13:39:36 10° ENE daylight
14 Feb - 15:10:13 10° W 15:13:02 26° NNW 15:15:51 10° NE daylight
14 Feb - 16:48:19 10° NW 16:50:17 15° N 16:52:14 10° NE daylight
14 Feb - 18:24:56 10° NW 18:27:35 22° NNE 18:30:14 10° ENE visible
14 Feb - 20:01:04 10° WNW 20:04:18 73° SW 20:07:31 10° SE visible
15 Feb - 12:40:58 10° SSW 12:43:45 26° SE 12:46:33 10° ENE daylight
15 Feb - 14:17:01 10° W 14:20:06 39° NNW 14:23:11 10° NE daylight
15 Feb - 15:55:05 10° NW 15:57:12 16° N 15:59:18 10° NNE daylight
15 Feb - 17:32:14 10° NNW 17:34:34 18° NNE 17:36:53 10° ENE daylight
15 Feb - 19:08:17 10° NW 19:11:30 60° NNE 19:14:43 10° ESE visible
15 Feb - 20:45:33 10° W 20:47:37 16° SW 20:49:42 10° S visible
16 Feb - 11:49:20 10° SSE 11:51:09 14° SE 11:52:58 10° E daylight
16 Feb - 13:24:00 10° WSW 13:27:14 68° NNW 13:30:29 10° NE daylight
16 Feb - 15:01:44 10° WNW 15:04:08 19° NNW 15:06:32 10° NNE daylight
16 Feb - 16:39:26 10° NNW 16:41:29 16° N 16:43:32 10° NE daylight
16 Feb - 18:15:36 10° NW 18:18:37 35° NNE 18:21:39 10° E visible
16 Feb - 19:52:07 10° WNW 19:55:01 30° SW 19:57:53 10° SSE visible
17 Feb - 12:31:12 10° SW 12:34:26 63° SE 12:37:39 10° ENE daylight
17 Feb - 14:08:22 10° WNW 14:11:06 24° NNW 14:13:49 10° NE daylight
17 Feb - 15:46:26 10° NW 15:48:23 15° N 15:50:20 10° NE daylight
17 Feb - 17:22:54 10° NW 17:25:40 25° NNE 17:28:24 10° ENE daylight
17 Feb - 18:59:05 10° WNW 19:02:18 59° SW 19:05:29 10° SE visible
18 Feb - 11:38:45 10° SSW 11:41:42 32° SE 11:44:38 10° ENE daylight
18 Feb - 13:15:05 10° W 13:18:06 34° NNW 13:21:08 10° NE daylight
18 Feb - 14:53:12 10° NW 14:55:15 15° N 14:57:18 10° NNE daylight
18 Feb - 16:30:11 10° NNW 16:32:36 19° NNE 16:35:01 10° ENE daylight
18 Feb - 18:06:15 10° NW 18:09:29 72° NE 18:12:43 10° ESE visible
18 Feb - 19:43:54 10° W 19:45:31 13° SW 19:47:09 10° SSW visible
19 Feb - 10:46:49 10° S 10:49:02 17° SE 10:51:15 10° E daylight
19 Feb - 12:21:57 10° WSW 12:25:11 57° NNW 12:28:24 10° NE daylight
19 Feb - 13:59:50 10° WNW 14:02:08 18° NNW 14:04:27 10° NNE daylight
19 Feb - 15:37:22 10° NNW 15:39:30 16° N 15:41:38 10° NE daylight
19 Feb - 17:13:29 10° NW 17:16:35 41° NNE 17:19:41 10° E daylight
19 Feb - 18:50:10 10° WNW 18:52:53 25° SW 18:55:36 10° SSE visible
20 Feb - 11:29:04 10° SW 11:32:19 77° SE 11:35:35 10° ENE daylight
20 Feb - 13:06:25 10° WNW 13:09:03 22° NNW 13:11:42 10° NE daylight
20 Feb - 14:44:23 10° NW 14:46:21 15° N 14:48:20 10° NE daylight
20 Feb - 16:20:45 10° NW 16:23:36 27° NNE 16:26:25 10° E daylight
20 Feb - 17:57:01 10° WNW 18:00:10 48° SW 18:03:18 10° SE visible
21 Feb - 10:36:28 10° SSW 10:39:31 38° SE 10:42:35 10° ENE daylight
21 Feb - 12:13:03 10° W 12:16:00 31° NNW 12:18:57 10° NE daylight
21 Feb - 13:51:11 10° NW 13:53:11 15° N 13:55:12 10° NE daylight
21 Feb - 15:28:01 10° NW 15:30:31 20° NNE 15:33:02 10° ENE daylight
21 Feb - 17:04:05 10° NW 17:07:21 85° NE 17:10:35 10° SE daylight
21 Feb - 18:42:24 10° WSW 18:43:18 11° SW 18:44:13 10° SW visible
22 Feb - 09:44:18 10° S 09:46:48 20° SE 09:49:18 10° E daylight
22 Feb - 11:19:50 10° WSW 11:23:01 48° NNW 11:26:12 10° NE daylight
22 Feb - 12:57:48 10° NW 13:00:02 17° N 13:02:15 10° NNE daylight
22 Feb - 14:35:11 10° NNW 14:37:24 17° N 14:39:36 10° NE daylight
22 Feb - 16:11:15 10° NW 16:14:25 47° NNE 16:17:34 10° ESE daylight
22 Feb - 17:48:08 10° W 17:50:39 21° SW 17:53:09 10° S visible
23 Feb - 08:53:20 10° SE 08:54:08 11° SE 08:54:56 10° ESE daylight
23 Feb - 10:26:50 10° SW 10:30:06 88° NNW 10:33:22 10° NE daylight
23 Feb - 12:04:20 10° WNW 12:06:53 21° NNW 12:09:26 10° NE daylight
23 Feb - 13:42:13 10° NW 13:44:13 15° N 13:46:13 10° NE daylight
23 Feb - 15:18:29 10° NW 15:21:25 30° NNE 15:24:20 10° E daylight
23 Feb - 16:54:50 10° WNW 16:57:55 40° SW 17:00:58 10° SSE daylight
